Weather History for KHYA - January, 2014

Change the Weather History Date:

Sunday, January 5, 2014

  Actual Average Record
Temperature  
Mean Temperature 37 °F -  
Max Temperature 46 °F 39 °F 59 °F (1950)
Min Temperature 28 °F 23 °F -6 °F (1981)
Degree Days  
Heating Degree Days 28    
Moisture  
Dew Point 34 °F    
Average Humidity 83    
Maximum Humidity 100    
Minimum Humidity 69    
Precipitation  
Precipitation 0.03 in - - ()
Sea Level Pressure  
Sea Level Pressure 30.20 in    
Wind  
Wind Speed 7 mph (South)    
Max Wind Speed 14 mph    
Max Gust Speed 21 mph    
Visibility 9 miles    
Events Rain    
Averages and records for this station are not official NWS values.
T = Trace of Precipitation, MM = Missing Value Source: NWS Daily Summary

Daily Weather History Graph

Daily Weather History Graph

Search for Another Location

Airport or City:

Trip Planner

Search our weather history database for the weather conditions in past years. The results will help you decide how hot, cold, wet, or windy it might be!

Date:

Astronomy

Jan. 05, 2014 Rise Set
Actual Time 7:08 AM EST 4:25 PM EST
Civil Twilight 6:37 AM EST 4:56 PM EST
Nautical Twilight 6:02 AM EST 5:31 PM EST
Astronomical Twilight 5:28 AM EST 6:04 PM EST
Moon 9:43 AM EST 9:54 PM EST
Length of Visible Light 10h 19m
Length of Day
9h 16m
Waxing Crescent, 24% of the Moon is Illuminated
Jan 5
Waxing Crescent
Jan 7
First Quarter
Jan 15
Full
Jan 24
Last Quarter
Jan 30
New

Hourly Weather History & Observations

Time (EST) Temp. Windchill Dew Point Humidity Pressure Visibility Wind Dir Wind Speed Gust Speed Precip Events Conditions
12:56 AM 37.0 °F 29.3 °F 30.0 °F 76% 30.28 in 10.0 mi West 11.5 mph - N/A   Clear
1:56 AM 33.1 °F 27.7 °F 27.0 °F 78% 30.28 in 10.0 mi West 5.8 mph - N/A   Clear
2:56 AM 30.0 °F - 25.0 °F 82% 30.28 in 10.0 mi Calm Calm - N/A   Clear
3:42 AM 30.2 °F 24.3 °F 24.8 °F 80% 30.28 in 10.0 mi West 5.8 mph - N/A   Mostly Cloudy
3:56 AM 30.0 °F 24.1 °F 23.0 °F 75% 30.29 in 10.0 mi WNW 5.8 mph - N/A   Mostly Cloudy
4:04 AM 30.2 °F 24.3 °F 23.0 °F 75% 30.28 in 10.0 mi West 5.8 mph - N/A   Overcast
4:56 AM 28.9 °F 20.4 °F 19.9 °F 69% 30.28 in 10.0 mi WSW 9.2 mph - N/A   Partly Cloudy
5:56 AM 30.0 °F 23.2 °F 21.0 °F 69% 30.29 in 10.0 mi SSW 6.9 mph - N/A   Clear
6:56 AM 30.9 °F 24.3 °F 24.1 °F 76% 30.30 in 10.0 mi SSW 6.9 mph - N/A   Clear
7:56 AM 30.9 °F 24.3 °F 27.0 °F 85% 30.31 in 10.0 mi SSW 6.9 mph - N/A   Clear
8:56 AM 33.1 °F 25.5 °F 26.1 °F 75% 30.33 in 10.0 mi SW 9.2 mph - N/A   Clear
9:56 AM 37.0 °F 31.6 °F 28.0 °F 70% 30.33 in 10.0 mi SW 6.9 mph - N/A   Overcast
10:56 AM 37.0 °F 32.4 °F 28.9 °F 73% 30.32 in 10.0 mi SSW 5.8 mph - N/A   Overcast
11:56 AM 37.9 °F - 30.0 °F 73% 30.28 in 10.0 mi Calm Calm - N/A   Overcast
12:56 PM 37.9 °F - 30.9 °F 76% 30.27 in 10.0 mi Calm Calm - N/A   Overcast
1:56 PM 37.9 °F - 32.0 °F 79% 30.27 in 10.0 mi Calm Calm - N/A   Overcast
2:56 PM 39.9 °F - 33.1 °F 77% 30.27 in 10.0 mi Calm Calm - N/A   Overcast
3:56 PM 39.0 °F - 36.0 °F 89% 30.26 in 10.0 mi Calm Calm - N/A   Overcast
4:37 PM 39.2 °F 35.9 °F 35.6 °F 87% 30.23 in 10.0 mi SE 4.6 mph - N/A   Mostly Cloudy
4:56 PM 39.0 °F 34.0 °F 36.0 °F 89% 30.23 in 10.0 mi SE 6.9 mph - N/A   Partly Cloudy
5:56 PM 42.1 °F 36.6 °F 39.0 °F 89% 30.21 in 10.0 mi SE 9.2 mph - N/A   Clear
6:56 PM 43.0 °F 38.8 °F 39.0 °F 86% 30.19 in 10.0 mi ESE 6.9 mph - N/A   Clear
7:56 PM 44.1 °F 39.0 °F 41.0 °F 89% 30.17 in 10.0 mi SE 9.2 mph - N/A   Clear
8:56 PM 44.1 °F 39.5 °F 41.0 °F 89% 30.12 in 10.0 mi SE 8.1 mph - N/A   Mostly Cloudy
9:56 PM 45.0 °F 40.6 °F 41.0 °F 86% 30.08 in 10.0 mi SE 8.1 mph - N/A   Overcast
10:39 PM 44.6 °F 39.2 °F 42.8 °F 93% 30.03 in 2.5 mi SE 10.4 mph 17.3 mph N/A Rain Light Rain
10:48 PM 44.6 °F 39.2 °F 42.8 °F 93% 30.02 in 3.0 mi SE 10.4 mph 17.3 mph N/A Rain Light Rain
10:56 PM 46.0 °F 40.6 °F 44.1 °F 93% 30.02 in 5.0 mi SE 11.5 mph 17.3 mph N/A Rain Light Rain
11:13 PM 46.4 °F 41.1 °F 44.6 °F 93% 30.00 in 3.0 mi SE 11.5 mph 19.6 mph 0.03 in Rain Light Rain
11:26 PM 46.4 °F 40.4 °F 44.6 °F 93% 29.98 in 2.5 mi SE 13.8 mph 20.7 mph 0.03 in Rain Light Rain
11:36 PM 46.4 °F 41.1 °F 46.4 °F 100% 29.97 in 5.0 mi SE 11.5 mph 20.7 mph 0.03 in Rain Light Rain
11:56 PM 46.0 °F 41.0 °F 45.0 °F 96% 29.95 in 3.0 mi SE 10.4 mph 19.6 mph 0.03 in Rain Light Rain